FloripaSat 1
1 44885U 19093G   25172.76741862  .00003555  00000-0  30127-3 0  9993
2 44885  97.8155 260.3935 0011094 162.4222 197.7387 14.98580794298576
RS-44
1 44909U 19096E   25172.59356635  .00000029  00000-0  79701-4 0  9999
2 44909  82.5205 219.2967 0216248 267.4855  90.1476 12.79741322256228
UPMSat 2
1 46276U 20061E   25172.16270734  .00051793  00000-0  42699-3 0  9999
2 46276  97.2435 246.9458 0002255 158.2188 201.9171 15.70210580267287
SALSAT
1 46495U 20068K   25172.83791835  .00005054  00000-0  21850-3 0  9998
2 46495  97.8602 151.4335 0012973 116.3185 243.9385 15.22886958260399
CubeSX-Sirius-HSE
1 47951U 21022V   25157.62701764  .07883385  25648-5  89537-3 0  9993
2 47951  97.4004  72.1904 0010275 223.9924 136.0557 16.36879307233400
CubeSX-HSE
1 47952U 21022W   25157.69972699  .06655353  25454-5  93288-3 0  9992
2 47952  97.3980  72.5414 0010307 219.3637 140.6911 16.34906352233436
GRBAlpha
1 47959U 21022AD  25160.45426279  .07940347  25506-5  90589-3 0  9995
2 47959  97.3899  75.6235 0011032 227.2558 132.7812 16.36806138232695
TUBIN
1 48900U 21059X   25172.77493235  .00039206  00000-0  45780-3 0  9992
2 48900  97.6749 343.0022 0004005 175.8790 184.2500 15.61518577221949
LEDSAT
1 49069U 21073D   25172.48215920  .00050303  00000-0  56862-3 0  9990
2 49069  97.3886 254.5298 0007940  40.9251 319.2602 15.62279269213296
CUTE
1 49263U 21088D   25172.84082315  .00011358  00000-0  22364-3 0  9999
2 49263  97.4511 249.4540 0008212 186.2227 173.8922 15.47372418206329
TeikyoSat 4
1 49396U 21102B   25172.56403748  .00001374  00000-0  93820-4 0  9992
2 49396  97.4094 210.5598 0014245  92.6637 267.6223 15.07688359198351
Z-Sat
1 49399U 21102E   25172.84205375  .00003125  00000-0  17248-3 0  9997
2 49399  97.3793 213.9991 0019549  64.6592 295.6662 15.14505358198830
KOSEN 1
1 49402U 21102H   25172.84665744  .00004876  00000-0  22583-3 0  9994
2 49402  97.3700 217.5114 0016743  41.7704 318.4806 15.20442238199158
HO-113
1 50466U 21131B   25172.84431152  .00000376  00000-0  13118-3 0  9997
2 50466  98.5106 262.1372 0005458  99.5498 260.6307 14.40827806183210
Foresail-1
1 52766U 22057AL  25172.38381248  .01197467  25407-5  82021-3 0  9990
2 52766  97.6091 326.2190 0012614 244.8275 145.4227 16.16417053171793
SNUGLITE 2
1 52899U 22065F   25172.18358323  .00000773  00000-0  15922-3 0  9997
2 52899  98.1702 314.0447 0008892  80.0570 280.1635 14.63238087158182
UmKA 1 (RS40S)
1 57172U 23091G   25172.82238891  .00004030  00000-0  21614-3 0  9999
2 57172  97.5577 228.1407 0012743 294.3431  65.6470 15.15475463109336
CubeBel-2 (EU11S)
1 57175U 23091K   25172.81986431  .00006423  00000-0  30511-3 0  9995
2 57175  97.5577 229.3593 0010499 302.6735  57.3487 15.19531601109410
VERONIKA
1 58261U 23174F   25172.80566743  .00146435  00000-0  10189-2 0  9999
2 58261  97.4111 259.7461 0002088 287.9449  72.1588 15.73944681 90606
ENSO
1 58470U 23185J   25172.85230189  .00044246  00000-0  60962-3 0  9992
2 58470  97.3733 248.3748 0006160  49.2990 310.8800 15.57091805 86948
EIRSAT-1
1 58472U 23185L   25172.82820987  .00101334  00000-0  83875-3 0  9992
2 58472  97.3680 250.4747 0002697  59.5795 300.5734 15.69942212 87080
SONATE-2
1 59112U 24043Q   25172.61231805  .00011605  00000-0  33132-3 0  9992
2 59112  97.5143 304.0350 0012060  75.5183 284.7398 15.36118002 72188
MO-122
1 60209U 24125G   25172.55896463  .00012441  00000-0  34916-3 0  9992
2 60209  97.2788  24.0455 0020317  95.0857 265.2707 15.36487177 53799
GRBBeta
1 60237U 24128C   25172.58058750  .00002976  00000-0  23081-3 0  9991
2 60237  61.9926  37.7133 0052882  60.2428 300.3909 15.02730886 52005
Curium One
1 60242U 24128H   25172.33138058  .00004900  00000-0  34542-3 0  9993
2 60242  61.9825  36.7015 0052773  56.4354 304.1761 15.05273268 52008
ROBUSTA-3A
1 60243U 24128J   25172.33770685  .00004860  00000-0  34749-3 0  9996
2 60243  61.9896  37.5468 0051642  54.1267 306.4604 15.04804371 51992
CatSat
1 60246U 24125J   25172.06799102  .00008012  00000-0  26572-3 0  9999
2 60246  97.2587  22.6433 0043597  54.9721 305.5599 15.30582325 51741
HYPERVIEW-1G (RS66S)
1 61772U 24199AP  25172.86070316  .00015664  00000-0  44832-3 0  9992
2 61772  97.3528  41.6959 0014818 143.0885 217.1382 15.35921912 78843
AO-123
1 61781U 24199AY  25172.82262689  .00004867  00000-0  17748-3 0  9993
2 61781  97.3541  40.4134 0016715 149.1811 211.0414 15.28505244 78751
ZIMSAT 2
1 61783U 24199BA  25172.80541228  .00029528  00000-0  70338-3 0  9997
2 61783  97.3503  42.3487 0014815 140.3687 219.8646 15.41438127 82035
HADES-R (SO-124)
1 62690U 25009CK  25172.18963876  .00023702  00000-0  82036-3 0  9990
2 62690  97.4082 252.9539 0003392  80.4492 279.7132 15.29866515 23929
HYDRA-T
1 62692U 25009CM  25172.17311161  .00024548  00000-0  84246-3 0  9999
2 62692  97.4091 252.9760 0003017  78.2716 281.8863 15.30137900 23921
JINJUSat 1B
1 63210U 25052A   25172.43916557  .00007342  00000-0  33536-3 0  9992
2 63210  97.4414  66.4130 0002310 289.9275  70.1711 15.20874863 15053
NUSHSAT 1
1 63211U 25052B   25172.69536336  .00008056  00000-0  36488-3 0  9996
2 63211  97.4403  66.6701 0002334 299.1631  60.9371 15.21131923 15090
TEVEL2-4
1 63213U 25052D   25172.44818245  .00008159  00000-0  37287-3 0  9995
2 63213  97.4319  66.2843 0002015 337.4356  22.6790 15.20820132 15059
TEVEL2-5
1 63214U 25052E   25172.44891902  .00008067  00000-0  36893-3 0  9997
2 63214  97.4321  66.2838 0002074 336.6003  23.5138 15.20799674 15054
TEVEL2-6
1 63215U 25052F   25171.59598403  .00008210  00000-0  37598-3 0  9996
2 63215  97.4319  65.4380 0002230 341.9497  18.1659 15.20745268 14928
TEVEL2-1
1 63217U 25052H   25172.13510033  .00008281  00000-0  38150-3 0  9995
2 63217  97.4297  65.9092 0002773 354.5319   5.5886 15.20534952 15003
TEVEL2-2
1 63218U 25052J   25172.13539892  .00008306  00000-0  38263-3 0  9993
2 63218  97.4297  65.9098 0002863 354.6654   5.4551 15.20536206 15005
TEVEL2-3
1 63219U 25052K   25172.13556045  .00008196  00000-0  37769-3 0  9990
2 63219  97.4295  65.9092 0002848 355.0302   5.0904 15.20530294 15005
TEVEL2-8
1 63237U 25052AD  25171.22225736  .00007535  00000-0  35981-3 0  9999
2 63237  97.4358  64.9183 0007552 352.5895   7.5227 15.19306433 14852
TEVEL2-9
1 63238U 25052AE  25171.22502024  .00007505  00000-0  35900-3 0  9996
2 63238  97.4360  64.9167 0007652 352.6001   7.5120 15.19244722 14853
TEVEL2-7
1 63239U 25052AF  25172.14932767  .00006742  00000-0  32305-3 0  9998
2 63239  97.4360  65.8204 0007534 349.4256  10.6819 15.19224125 14991
HYDRA-W
1 63490U 25052BL  25171.25166349  .00019435  00000-0  80910-3 0  9991
2 63490  97.4307  65.2731 0010715 345.8767  14.2169 15.23733676 14889
HADES-ICM (SO-125)
1 63492U 25052BN  25171.92656994  .00018423  00000-0  77694-3 0  9998
2 63492  97.4312  65.9066 0011097 346.5378  13.5561 15.23303640 14988
